User: anonymous   Login
Location: Luz Observatory
(34.5000°N, 117.2833°W)
Time: 10:16:31
(UTC-07:00)
Language:

Okean 3 Rocket - Orbit

View from above orbital plane
View from above orbital plane
View from above satellite
View from above satellite

Ground track
Ground track

The orbit data is extracted from the following two-line orbital elements,

1 21398U 91039B   15143.67656896  .00000224  00000-0  26733-4 0  9995
2 21398 082.5241 209.3766 0022678 136.0121 336.5174 14.79469740292192
Epoch (UTC): 23 May 2015 16:14:15
Eccentricity: 0.0022678
inclination: 82.5241°
perigee height: 615 km
apogee height: 647 km
right ascension of ascending node: 209.3766°
argument of perigee: 136.0121°
revolutions per day: 14.79469740
mean anomaly at epoch: 336.5174°
orbit number at epoch: 29219

The dashed part of the orbit path shows where the satellite is in the earth's shadow,  

DLR